Satellite-Ground Cal/Val Site Overpasses Predictions

Prediction of Satellite NPP Overpassing Cal/Val Site: Antarctic Dome C

Ground Cal/Val Site Location: Latitude: -75.10, Longitude: 123.35; Satellite-Ground Site NADIR distance within 100 km.

Table of predicted overpasses for the next 14.0 days since TLE Epoch: 1/10/2020
Interval Starting Time Ending Time Minimum Distance Time Minimum Distance (km)
1 01/11/2020 15:00:44 01/11/2020 15:01:08 01/11/2020 15:00:56 56.13
2 01/12/2020 14:41:52 01/12/2020 14:42:17 01/12/2020 14:42:05 53.01
3 01/13/2020 07:43:33 01/13/2020 07:43:54 01/13/2020 07:43:43 70.21
4 01/14/2020 07:24:39 01/14/2020 07:25:06 01/14/2020 07:24:53 37.91
5 01/16/2020 15:07:03 01/16/2020 15:07:13 01/16/2020 15:07:08 93.50
6 01/17/2020 14:48:03 01/17/2020 14:48:32 01/17/2020 14:48:18 17.96
7 01/19/2020 07:30:51 01/19/2020 07:31:20 01/19/2020 07:31:06 3.28
8 01/22/2020 14:54:15 01/22/2020 14:54:44 01/22/2020 14:54:29 18.42
9 01/23/2020 14:35:33 01/23/2020 14:35:46 01/23/2020 14:35:40 88.52


NCC Satellite Cal/Val Overpasses Prediction Service
